This is the latest recevied weather packets stored in our database for station/object KD2VWU. If no packets are shown the sender has not sent any weather packets the latest 10 day(s).
| Time | Temp. | Humidity | Pressure | Rain* | Wind** | Luminosity | Snow |
|---|---|---|---|---|---|---|---|
| 1777578189 | 12.22° C | 95% | 1003.5 hPa | 0 mm | - | - | - |
| 1777577885 | 12.22° C | 95% | 1003.3 hPa | 0 mm | - | - | - |
| 1777577580 | 12.78° C | 93% | 1003.5 hPa | 0 mm | - | - | - |
| 1777577277 | 12.78° C | 92% | 1003.6 hPa | 0 mm | - | - | - |
| 1777576974 | 12.78° C | 90% | 1003.5 hPa | 0 mm | - | - | - |
| 1777576670 | 12.78° C | 91% | 1003.4 hPa | 0 mm | - | - | - |
| 1777576369 | 12.78° C | 90% | 1003.4 hPa | 0 mm | - | - | - |
| 1777576066 | 13.33° C | 89% | 1003.3 hPa | 0 mm | - | - | - |
| 1777575762 | 12.78° C | 88% | 1003.5 hPa | 0 mm | - | - | - |
| 1777575458 | 13.33° C | 89% | 1003.6 hPa | 0 mm | - | - | - |
| 1777575155 | 13.33° C | 89% | 1003.4 hPa | 0 mm | - | - | - |
| 1777574850 | 13.33° C | 86% | 1003.5 hPa | 0 mm | - | - | - |
| 1777574548 | 13.33° C | 86% | 1003.6 hPa | 0 mm | - | - | - |
| 1777574244 | 13.33° C | 85% | 1003.8 hPa | 0 mm | - | - | - |
| 1777573939 | 13.33° C | 89% | 1003.8 hPa | 0 mm | - | - | - |
| 1777573634 | 13.33° C | 87% | 1003.7 hPa | 0 mm | - | - | - |
| 1777573331 | 12.78° C | 87% | 1003.8 hPa | 0 mm | - | - | - |
| 1777573026 | 13.33° C | 86% | 1003.7 hPa | 0 mm | - | - | - |
| 1777572722 | 13.33° C | 86% | 1003.5 hPa | 0 mm | - | - | - |
| 1777572412 | 13.33° C | 86% | 1003.8 hPa | 0 mm | - | - | - |
| 1777572109 | 13.33° C | 87% | 1003.6 hPa | 0 mm | - | - | - |
| 1777571809 | 13.89° C | 85% | 1003.8 hPa | 0 mm | - | - | - |
| 1777571506 | 14.44° C | 79% | 1003.4 hPa | 0 mm | - | - | - |
| 1777571202 | 14.44° C | 87% | 1003.4 hPa | 0 mm | - | - | - |
| 1777570898 | 12.78° C | 89% | 1003.4 hPa | 0 mm | - | - | - |
* Rain latest hour (hover to see other rain measurements)
** Current wind speed in m/s (hover to see current wind gust speed)